Location: Newark
(56.0692°N, 115.8617°E)
Time: 11:39:29
(UTC+00:00)

Vanguard 2 Rocket - Pass Details

Date: 02 June 2020
Orbit: 556 x 3325 km, 32.9° (Epoch: 14 July)

Event Time Altitude Azimuth Distance (km) Brightness Sun altitude
Rises 07:21:17 0° 215° (SW) 3,946 10.8 42.0°
Reaches altitude 10° 07:24:53 10° 195° (SSW) 3,400 10.4 41.5°
Maximum altitude 07:30:05 17° 158° (SSE) 3,463 10.1 40.9°
Drops below altitude 10° 07:36:57 10° 125° (SE) 4,714 10.4 40.0°
Sets 07:43:31 0° 109° (ESE) 6,310 10.8 39.1°
